| time (UTC) | temp F | wind direction | speed MPH | gust MPH | rain 1hr in | rain 24hr in | rain mn in | humidity % | barometer mb |
| 20260506022322 | 64 | 225 | 2.0 | 6.0 | 0.00 | 0.00 | 0.00 | 73 | 988.8 |
| 20260506021319 | 64 | 203 | 3.0 | 7.0 | 0.00 | 0.00 | 0.00 | 73 | 988.8 |
| 20260506020320 | 63 | 203 | 3.0 | 5.0 | 0.00 | 0.00 | 0.00 | 73 | 988.8 |
| 20260506015318 | 63 | 248 | 1.0 | 3.0 | 0.00 | 0.00 | 0.00 | 74 | 988.4 |
| 20260506014318 | 63 | 225 | 1.0 | 3.0 | 0.00 | 0.00 | 0.00 | 75 | 988.3 |
| 20260506013321 | 63 | 203 | 1.0 | 3.0 | 0.00 | 0.00 | 0.00 | 76 | 988.3 |
| 20260506012319 | 64 | 203 | 1.0 | 2.0 | 0.00 | 0.00 | 0.00 | 74 | 988.1 |
| 20260506011319 | 64 | 0.0 | 2.0 | 0.00 | 0.00 | 0.00 | 73 | 988.0 | |
| 20260506010318 | 64 | 180 | 1.0 | 2.0 | 0.00 | 0.00 | 0.00 | 72 | 987.9 |
| 20260506005318 | 64 | 203 | 2.0 | 4.0 | 0.00 | 0.00 | 0.00 | 72 | 987.9 |
| 20260506004318 | 64 | 225 | 2.0 | 5.0 | 0.00 | 0.00 | 0.00 | 72 | 987.7 |
| 20260506003318 | 64 | 0.0 | 2.0 | 0.00 | 0.00 | 0.00 | 73 | 987.9 | |
| 20260506002318 | 64 | 0.0 | 0.0 | 0.00 | 0.00 | 0.00 | 74 | 987.8 | |
| 20260506001322 | 64 | 0.0 | 0.0 | 0.00 | 0.00 | 0.00 | 73 | 987.8 | |
| 20260506000318 | 64 | 0.0 | 0.0 | 0.00 | 0.00 | 0.00 | 73 | 987.8 | |
| 20260505235318 | 64 | 0.0 | 0.0 | 0.00 | 0.00 | 0.00 | 73 | 987.8 | |
| 20260505234319 | 65 | 0.0 | 0.0 | 0.00 | 0.00 | 0.00 | 73 | 987.3 | |
| 20260505233321 | 65 | 0.0 | 0.0 | 0.00 | 0.00 | 0.00 | 72 | 987.4 | |
| 20260505232318 | 65 | 0.0 | 0.0 | 0.00 | 0.00 | 0.00 | 71 | 987.4 | |
| 20260505231318 | 65 | 293 | 4.0 | 6.0 | 0.00 | 0.00 | 0.00 | 72 | 987.3 |
| 20260505230318 | 64 | 293 | 2.0 | 5.0 | 0.00 | 0.00 | 0.00 | 73 | 987.0 |
| 20260505225323 | 64 | 293 | 4.0 | 8.0 | 0.00 | 0.00 | 0.00 | 73 | 986.9 |
| 20260505224321 | 64 | 315 | 3.0 | 5.0 | 0.00 | 0.00 | 0.00 | 74 | 986.6 |
| 20260505223318 | 65 | 338 | 4.0 | 8.0 | 0.00 | 0.00 | 0.00 | 73 | 986.4 |
| 20260505222318 | 66 | 315 | 1.0 | 3.0 | 0.00 | 0.00 | 0.00 | 70 | 986.5 |
| 20260505221320 | 66 | 315 | 1.0 | 2.0 | 0.00 | 0.00 | 0.00 | 69 | 986.1 |
| 20260505220319 | 67 | 293 | 2.0 | 4.0 | 0.00 | 0.00 | 0.00 | 65 | 985.9 |
| 20260505215318 | 68 | 23 | 3.0 | 6.0 | 0.00 | 0.00 | 0.00 | 64 | 985.4 |
| 20260505214318 | 68 | 293 | 9.0 | 13.0 | 0.00 | 0.00 | 0.00 | 62 | 985.8 |
| 20260505213319 | 67 | 293 | 3.0 | 4.0 | 0.00 | 0.00 | 0.00 | 64 | 985.4 |
| 20260505212318 | 68 | 270 | 1.0 | 3.0 | 0.00 | 0.00 | 0.00 | 61 | 985.8 |
| 20260505211318 | 70 | 315 | 8.0 | 12.0 | 0.00 | 0.00 | 0.00 | 55 | 985.7 |
| 20260505210320 | 77 | 293 | 12.0 | 16.0 | 0.00 | 0.00 | 0.00 | 38 | 985.7 |
| 20260505205433 | 78 | 225 | 15.0 | 23.0 | 0.00 | 0.00 | 0.00 | 35 | 984.5 |
| 20260505204718 | 78 | 248 | 12.0 | 17.0 | 0.00 | 0.00 | 0.00 | 34 | 984.3 |
| 20260505203726 | 79 | 248 | 11.0 | 15.0 | 0.00 | 0.00 | 0.00 | 34 | 984.1 |
| 20260505202720 | 79 | 203 | 11.0 | 20.0 | 0.00 | 0.00 | 0.00 | 33 | 984.1 |
| 20260505201725 | 79 | 225 | 15.0 | 27.0 | 0.00 | 0.00 | 0.00 | 33 | 984.1 |
| 20260505200721 | 79 | 248 | 13.0 | 25.0 | 0.00 | 0.00 | 0.00 | 33 | 984.4 |
| 20260505195720 | 79 | 203 | 12.0 | 23.0 | 0.00 | 0.00 | 0.00 | 33 | 984.5 |
| 20260505194719 | 79 | 225 | 17.0 | 28.0 | 0.00 | 0.00 | 0.00 | 35 | 984.5 |
| 20260505193718 | 79 | 248 | 13.0 | 20.0 | 0.00 | 0.00 | 0.00 | 32 | 984.6 |
| 20260505192722 | 79 | 225 | 14.0 | 23.0 | 0.00 | 0.00 | 0.00 | 32 | 984.8 |
| 20260505191720 | 79 | 248 | 15.0 | 23.0 | 0.00 | 0.00 | 0.00 | 33 | 984.9 |
| 20260505190718 | 79 | 225 | 14.0 | 21.0 | 0.00 | 0.00 | 0.00 | 33 | 984.9 |
| 20260505185720 | 79 | 248 | 14.0 | 21.0 | 0.00 | 0.00 | 0.00 | 34 | 984.8 |
| 20260505184829 | 78 | 225 | 10.0 | 18.0 | 0.00 | 0.00 | 0.00 | 38 | 985.0 |
| 20260505184020 | 78 | 225 | 13.0 | 25.0 | 0.00 | 0.00 | 0.00 | 38 | 985.0 |
| 20260505183020 | 78 | 180 | 8.0 | 18.0 | 0.00 | 0.00 | 0.00 | 37 | 985.1 |
| 20260505182020 | 79 | 248 | 19.0 | 28.0 | 0.00 | 0.00 | 0.00 | 35 | 985.2 |
| 20260505181020 | 79 | 225 | 14.0 | 26.0 | 0.00 | 0.00 | 0.00 | 37 | 985.6 |
| 20260505180020 | 79 | 248 | 13.0 | 24.0 | 0.00 | 0.00 | 0.00 | 36 | 985.7 |
| 20260505175020 | 78 | 248 | 13.0 | 35.0 | 0.00 | 0.00 | 0.00 | 37 | 985.8 |
| 20260505174020 | 78 | 203 | 9.0 | 14.0 | 0.00 | 0.00 | 0.00 | 39 | 985.9 |
| 20260505173019 | 77 | 180 | 8.0 | 16.0 | 0.00 | 0.00 | 0.00 | 41 | 986.0 |
| 20260505172128 | 77 | 225 | 5.0 | 10.0 | 0.00 | 0.00 | 0.00 | 40 | 986.2 |
| 20260505171220 | 77 | 225 | 8.0 | 17.0 | 0.00 | 0.00 | 0.00 | 40 | 986.2 |
| 20260505170220 | 77 | 225 | 8.0 | 13.0 | 0.00 | 0.00 | 0.00 | 40 | 986.2 |
| 20260505165219 | 77 | 225 | 8.0 | 12.0 | 0.00 | 0.00 | 0.00 | 41 | 986.4 |
| 20260505164221 | 76 | 225 | 8.0 | 16.0 | 0.00 | 0.00 | 0.00 | 44 | 986.5 |
| 20260505163218 | 76 | 158 | 9.0 | 19.0 | 0.00 | 0.00 | 0.00 | 43 | 986.8 |
| 20260505162219 | 75 | 203 | 10.0 | 18.0 | 0.00 | 0.00 | 0.00 | 44 | 986.9 |
| 20260505161219 | 74 | 248 | 11.0 | 17.0 | 0.00 | 0.00 | 0.00 | 46 | 987.2 |
| 20260505160220 | 74 | 225 | 5.0 | 9.0 | 0.00 | 0.00 | 0.00 | 47 | 987.4 |
| 20260505153219 | 72 | 225 | 7.0 | 16.0 | 0.00 | 0.00 | 0.00 | 49 | 988.0 |
| 20260505152227 | 72 | 180 | 5.0 | 9.0 | 0.00 | 0.00 | 0.00 | 49 | 988.3 |
| 20260505151219 | 71 | 248 | 10.0 | 14.0 | 0.00 | 0.00 | 0.00 | 49 | 988.4 |
| 20260505150221 | 70 | 203 | 9.0 | 15.0 | 0.00 | 0.00 | 0.00 | 50 | 988.4 |
| 20260505140219 | 66 | 225 | 7.0 | 12.0 | 0.00 | 0.00 | 0.00 | 56 | 988.8 |
| 20260505124819 | 58 | 225 | 7.0 | 13.0 | 0.00 | 0.00 | 0.00 | 67 | 988.6 |
| 20260505123821 | 56 | 225 | 4.0 | 8.0 | 0.00 | 0.00 | 0.00 | 69 | 988.6 |
| 20260505122819 | 56 | 180 | 5.0 | 9.0 | 0.00 | 0.00 | 0.00 | 70 | 988.5 |
| 20260505121822 | 55 | 225 | 3.0 | 9.0 | 0.00 | 0.00 | 0.00 | 72 | 988.6 |
| 20260505120821 | 56 | 225 | 4.0 | 7.0 | 0.00 | 0.00 | 0.00 | 70 | 988.4 |
| 20260505115819 | 56 | 203 | 2.0 | 4.0 | 0.00 | 0.00 | 0.00 | 68 | 988.3 |
| 20260505114819 | 56 | 225 | 4.0 | 8.0 | 0.00 | 0.00 | 0.00 | 69 | 989.0 |
| 20260505113819 | 54 | 225 | 2.0 | 3.0 | 0.00 | 0.00 | 0.00 | 71 | 989.1 |
| 20260505112819 | 54 | 225 | 6.0 | 8.0 | 0.00 | 0.00 | 0.00 | 72 | 989.0 |
| 20260505111821 | 53 | 248 | 9.0 | 11.0 | 0.00 | 0.00 | 0.00 | 72 | 988.8 |
| 20260505110819 | 53 | 248 | 3.0 | 9.0 | 0.00 | 0.00 | 0.00 | 71 | 988.7 |
| 20260505101819 | 53 | 203 | 3.0 | 9.0 | 0.00 | 0.00 | 0.00 | 70 | 988.1 |
| 20260505100819 | 53 | 225 | 3.0 | 8.0 | 0.00 | 0.00 | 0.00 | 70 | 988.2 |
| 20260505095819 | 53 | 248 | 6.0 | 10.0 | 0.00 | 0.00 | 0.00 | 70 | 988.3 |
| 20260505094818 | 53 | 225 | 5.0 | 8.0 | 0.00 | 0.00 | 0.00 | 69 | 988.1 |
| 20260505093823 | 53 | 203 | 2.0 | 4.0 | 0.00 | 0.00 | 0.00 | 69 | 988.2 |
| 20260505092819 | 53 | 225 | 3.0 | 7.0 | 0.00 | 0.00 | 0.00 | 69 | 988.2 |
| 20260505091828 | 53 | 248 | 5.0 | 8.0 | 0.00 | 0.00 | 0.00 | 68 | 988.3 |
| 20260505090821 | 54 | 225 | 3.0 | 6.0 | 0.00 | 0.00 | 0.00 | 68 | 988.3 |
| 20260505085819 | 54 | 225 | 3.0 | 6.0 | 0.00 | 0.00 | 0.00 | 67 | 988.6 |
| 20260505084819 | 54 | 203 | 3.0 | 6.0 | 0.00 | 0.00 | 0.00 | 67 | 988.6 |
| 20260505083819 | 54 | 225 | 3.0 | 6.0 | 0.00 | 0.00 | 0.00 | 66 | 988.8 |
| 20260505082819 | 54 | 225 | 5.0 | 6.0 | 0.00 | 0.00 | 0.00 | 67 | 988.6 |
| 20260505081821 | 54 | 180 | 3.0 | 6.0 | 0.00 | 0.00 | 0.00 | 66 | 988.5 |
| 20260505080822 | 54 | 225 | 3.0 | 7.0 | 0.00 | 0.00 | 0.00 | 65 | 988.6 |
| 20260505075822 | 54 | 248 | 7.0 | 11.0 | 0.00 | 0.00 | 0.00 | 65 | 988.6 |
| 20260505074818 | 55 | 225 | 5.0 | 8.0 | 0.00 | 0.00 | 0.00 | 64 | 988.6 |
| 20260505073821 | 55 | 225 | 4.0 | 10.0 | 0.00 | 0.00 | 0.00 | 64 | 988.6 |
| 20260505072819 | 55 | 203 | 5.0 | 8.0 | 0.00 | 0.00 | 0.00 | 63 | 988.6 |
| 20260505071819 | 55 | 225 | 4.0 | 7.0 | 0.00 | 0.00 | 0.00 | 63 | 988.7 |
| 20260505070818 | 55 | 225 | 5.0 | 9.0 | 0.00 | 0.00 | 0.00 | 63 | 988.8 |
| 20260505065820 | 55 | 203 | 5.0 | 10.0 | 0.00 | 0.00 | 0.00 | 63 | 988.8 |
| 20260505064818 | 55 | 225 | 3.0 | 10.0 | 0.00 | 0.00 | 0.00 | 64 | 988.8 |
| 20260505063828 | 55 | 225 | 7.0 | 14.0 | 0.00 | 0.00 | 0.00 | 65 | 988.8 |
| 20260505062819 | 54 | 225 | 6.0 | 10.0 | 0.00 | 0.00 | 0.00 | 65 | 988.8 |
| 20260505062018 | 54 | 225 | 1.0 | 4.0 | 0.00 | 0.00 | 0.00 | 65 | 988.8 |
| 20260505061722 | 54 | 0.0 | 0.0 | 0.00 | 0.00 | 0.00 | 65 | 988.8 | |
| 20260505060718 | 54 | 248 | 3.0 | 9.0 | 0.00 | 0.00 | 0.00 | 65 | 988.9 |
| 20260505055730 | 54 | 203 | 1.0 | 3.0 | 0.00 | 0.00 | 0.00 | 65 | 988.9 |
| 20260505054757 | 55 | 203 | 4.0 | 7.0 | 0.00 | 0.00 | 0.00 | 65 | 989.0 |
| 20260505054755 | 55 | 203 | 5.0 | 14.0 | 0.00 | 0.00 | 0.00 | 64 | 988.9 |
| 20260505054753 | 55 | 225 | 4.0 | 10.0 | 0.00 | 0.00 | 0.00 | 64 | 989.1 |
| 20260505050331 | 55 | 158 | 6.0 | 14.0 | 0.00 | 0.00 | 0.00 | 63 | 989.0 |
| 20260505041618 | 56 | 180 | 3.0 | 6.0 | 0.00 | 0.00 | 0.00 | 61 | 988.9 |
| 20260505040618 | 56 | 225 | 1.0 | 3.0 | 0.00 | 0.00 | 0.00 | 61 | 989.0 |
| 20260505035619 | 57 | 203 | 3.0 | 8.0 | 0.00 | 0.00 | 0.00 | 60 | 988.9 |
| 20260505034621 | 57 | 225 | 4.0 | 8.0 | 0.00 | 0.00 | 0.00 | 59 | 988.8 |
| 20260505033618 | 57 | 180 | 4.0 | 10.0 | 0.00 | 0.00 | 0.00 | 58 | 988.8 |
| 20260505032628 | 57 | 225 | 3.0 | 7.0 | 0.00 | 0.00 | 0.00 | 58 | 988.6 |
| 20260505031619 | 58 | 203 | 4.0 | 8.0 | 0.00 | 0.00 | 0.00 | 56 | 988.6 |
| 20260505030621 | 58 | 203 | 7.0 | 13.0 | 0.00 | 0.00 | 0.00 | 55 | 988.6 |
| 20260505025618 | 59 | 203 | 7.0 | 12.0 | 0.00 | 0.00 | 0.00 | 53 | 988.7 |
| 20260505024619 | 59 | 180 | 4.0 | 8.0 | 0.00 | 0.00 | 0.00 | 52 | 988.5 |
| 20260505023624 | 60 | 203 | 7.0 | 13.0 | 0.00 | 0.00 | 0.00 | 51 | 988.7 |